owner,sensor,date,latitude,longitude,vertical_datum,wind_speed,wind_to_direction,wind_speed_of_gust,qcFlag 
TCOON,ioos:station:TCOON:518:1,2014-08-01T00:00:00Z,29.5150,-94.5133,0.0,3.2,200.0,5.9,'11111222,11111222,11111222' 
TCOON,ioos:station:TCOON:518:1,2014-08-01T00:06:00Z,29.5150,-94.5133,0.0,3.8,193.0,5.6,'11111222,11111222,11111222' 
TCOON,ioos:station:TCOON:518:1,2014-08-01T00:12:00Z,29.5150,-94.5133,0.0,3.8,193.0,5.6,'1111122,1111122,1111122' 
TCOON,ioos:station:TCOON:518:1,2014-08-01T00:18:00Z,29.5150,-94.5133,0.0,3.6,192.0,6.1,'11111222,11111222,11111222' 
TCOON,ioos:station:TCOON:518:1,2014-08-01T00:24:00Z,29.5150,-94.5133,0.0,3.9,189.0,5.5,'11111222,11111222,11111222' 
TCOON,ioos:station:TCOON:518:1,2014-08-01T00:30:00Z,29.5150,-94.5133,0.0,3.9,195.0,5.8,'11111222,11111222,11111222' 
TCOON,ioos:station:TCOON:518:1,2014-08-01T00:36:00Z,29.5150,-94.5133,0.0,4.2,185.0,6.2,'11111222,11111222,11111222' 
TCOON,ioos:station:TCOON:518:1,2014-08-01T00:42:00Z,29.5150,-94.5133,0.0,4.1,187.0,6.0,'11111222,11111222,11111222' 
TCOON,ioos:station:TCOON:518:1,2014-08-01T00:48:00Z,29.5150,-94.5133,0.0,4.0,191.0,6.4,'11111222,11111222,11111222' 
TCOON,ioos:station:TCOON:518:1,2014-08-01T00:54:00Z,29.5150,-94.5133,0.0,3.7,189.0,6.3,'11111222,11111222,11111222' 
TCOON,ioos:station:TCOON:518:1,2014-08-01T01:00:00Z,29.5150,-94.5133,0.0,4.4,184.0,6.8,'11111222,11111222,11111222' 
TCOON,ioos:station:TCOON:518:1,2014-08-01T01:06:00Z,29.5150,-94.5133,0.0,3.7,185.0,6.7,'11111222,11111222,11111222' 
TCOON,ioos:station:TCOON:518:1,2014-08-01T01:12:00Z,29.5150,-94.5133,0.0,3.7,185.0,6.7,'1111122,1111122,1111122' 
TCOON,ioos:station:TCOON:518:1,2014-08-01T01:18:00Z,29.5150,-94.5133,0.0,3.7,184.0,6.1,'11111222,11111222,11111222' 
TCOON,ioos:station:TCOON:518:1,2014-08-01T01:24:00Z,29.5150,-94.5133,0.0,4.2,191.0,6.4,'11111222,11111222,11111222' 
TCOON,ioos:station:TCOON:518:1,2014-08-01T01:30:00Z,29.5150,-94.5133,0.0,4.4,193.0,6.0,'11111222,11111222,11111222' 
TCOON,ioos:station:TCOON:518:1,2014-08-01T01:36:00Z,29.5150,-94.5133,0.0,4.6,186.0,6.5,'11111222,11111222,11111222' 
TCOON,ioos:station:TCOON:518:1,2014-08-01T01:42:00Z,29.5150,-94.5133,0.0,3.0,187.0,5.8,'11111222,11111222,11111222' 
TCOON,ioos:station:TCOON:518:1,2014-08-01T01:48:00Z,29.5150,-94.5133,0.0,5.3,181.0,7.7,'11111222,11111222,11111222' 
TCOON,ioos:station:TCOON:518:1,2014-08-01T01:54:00Z,29.5150,-94.5133,0.0,3.6,180.0,6.7,'11111222,11111222,11111222' 
TCOON,ioos:station:TCOON:518:1,2014-08-01T02:00:00Z,29.5150,-94.5133,0.0,4.1,190.0,6.7,'11111222,11111222,11111222' 
TCOON,ioos:station:TCOON:518:1,2014-08-01T02:06:00Z,29.5150,-94.5133,0.0,3.8,185.0,5.8,'11111222,11111222,11111222' 
TCOON,ioos:station:TCOON:518:1,2014-08-01T02:12:00Z,29.5150,-94.5133,0.0,3.8,185.0,5.8,'1111122,1111122,1111122' 
TCOON,ioos:station:TCOON:518:1,2014-08-01T02:18:00Z,29.5150,-94.5133,0.0,3.8,186.0,7.4,'11111222,11111222,11111222' 
TCOON,ioos:station:TCOON:518:1,2014-08-01T02:24:00Z,29.5150,-94.5133,0.0,4.4,185.0,5.8,'11111222,11111222,11111222' 
TCOON,ioos:station:TCOON:518:1,2014-08-01T02:30:00Z,29.5150,-94.5133,0.0,4.1,184.0,5.8,'11111222,11111222,11111222' 
TCOON,ioos:station:TCOON:518:1,2014-08-01T02:36:00Z,29.5150,-94.5133,0.0,3.9,191.0,6.0,'11111222,11111222,11111222' 
TCOON,ioos:station:TCOON:518:1,2014-08-01T02:42:00Z,29.5150,-94.5133,0.0,3.8,198.0,5.8,'11111222,11111222,11111222' 
TCOON,ioos:station:TCOON:518:1,2014-08-01T02:48:00Z,29.5150,-94.5133,0.0,4.3,189.0,6.2,'11111222,11111222,11111222' 
TCOON,ioos:station:TCOON:518:1,2014-08-01T02:54:00Z,29.5150,-94.5133,0.0,3.7,187.0,5.9,'11111222,11111222,11111222' 
TCOON,ioos:station:TCOON:518:1,2014-08-01T03:00:00Z,29.5150,-94.5133,0.0,3.9,187.0,5.6,'11111222,11111222,11111222' 
TCOON,ioos:station:TCOON:518:1,2014-08-01T03:06:00Z,29.5150,-94.5133,0.0,4.8,189.0,6.8,'11111222,11111222,11111222' 
TCOON,ioos:station:TCOON:518:1,2014-08-01T03:12:00Z,29.5150,-94.5133,0.0,4.8,189.0,6.8,'1111122,1111122,1111122' 
TCOON,ioos:station:TCOON:518:1,2014-08-01T03:18:00Z,29.5150,-94.5133,0.0,3.8,194.0,6.5,'11111222,11111222,11111222' 
TCOON,ioos:station:TCOON:518:1,2014-08-01T03:24:00Z,29.5150,-94.5133,0.0,4.2,201.0,6.7,'11111222,11111222,11111222' 
TCOON,ioos:station:TCOON:518:1,2014-08-01T03:30:00Z,29.5150,-94.5133,0.0,4.7,193.0,6.7,'11111222,11111222,11111222' 
TCOON,ioos:station:TCOON:518:1,2014-08-01T03:36:00Z,29.5150,-94.5133,0.0,3.9,201.0,7.2,'11111222,11111222,11111222' 
TCOON,ioos:station:TCOON:518:1,2014-08-01T03:42:00Z,29.5150,-94.5133,0.0,3.8,210.0,5.5,'11111222,11111222,11111222' 
TCOON,ioos:station:TCOON:518:1,2014-08-01T03:48:00Z,29.5150,-94.5133,0.0,3.4,211.0,7.0,'11111222,11111222,11111222' 
TCOON,ioos:station:TCOON:518:1,2014-08-01T03:54:00Z,29.5150,-94.5133,0.0,2.8,205.0,5.1,'11111222,11111222,11111222' 
TCOON,ioos:station:TCOON:518:1,2014-08-01T04:00:00Z,29.5150,-94.5133,0.0,3.3,194.0,5.8,'11111222,11111222,11111222' 
TCOON,ioos:station:TCOON:518:1,2014-08-01T04:06:00Z,29.5150,-94.5133,0.0,3.3,188.0,5.4,'11111222,11111222,11111222' 
TCOON,ioos:station:TCOON:518:1,2014-08-01T04:12:00Z,29.5150,-94.5133,0.0,3.3,188.0,5.4,'1111122,1111122,1111122' 
TCOON,ioos:station:TCOON:518:1,2014-08-01T04:18:00Z,29.5150,-94.5133,0.0,3.4,195.0,5.0,'11111222,11111222,11111222' 
TCOON,ioos:station:TCOON:518:1,2014-08-01T04:24:00Z,29.5150,-94.5133,0.0,2.9,194.0,4.8,'11111222,11111222,11111222' 
TCOON,ioos:station:TCOON:518:1,2014-08-01T04:30:00Z,29.5150,-94.5133,0.0,3.3,190.0,5.0,'11111222,11111222,11111222' 
TCOON,ioos:station:TCOON:518:1,2014-08-01T04:36:00Z,29.5150,-94.5133,0.0,3.7,190.0,5.0,'11111222,11111222,11111222' 
TCOON,ioos:station:TCOON:518:1,2014-08-01T04:42:00Z,29.5150,-94.5133,0.0,3.3,189.0,5.4,'11111222,11111222,11111222' 
TCOON,ioos:station:TCOON:518:1,2014-08-01T04:48:00Z,29.5150,-94.5133,0.0,4.1,184.0,6.0,'11111222,11111222,11111222' 
TCOON,ioos:station:TCOON:518:1,2014-08-01T04:54:00Z,29.5150,-94.5133,0.0,3.0,183.0,6.1,'11111222,11111222,11111222' 
TCOON,ioos:station:TCOON:518:1,2014-08-01T05:00:00Z,29.5150,-94.5133,0.0,3.9,188.0,6.1,'11111222,11111222,11111222' 
TCOON,ioos:station:TCOON:518:1,2014-08-01T05:06:00Z,29.5150,-94.5133,0.0,3.4,196.0,5.6,'11111222,11111222,11111222' 
TCOON,ioos:station:TCOON:518:1,2014-08-01T05:12:00Z,29.5150,-94.5133,0.0,3.4,196.0,5.6,'1111122,1111122,1111122' 
TCOON,ioos:station:TCOON:518:1,2014-08-01T05:18:00Z,29.5150,-94.5133,0.0,3.3,201.0,5.7,'11111222,11111222,11111222' 
TCOON,ioos:station:TCOON:518:1,2014-08-01T05:24:00Z,29.5150,-94.5133,0.0,2.9,207.0,5.2,'11111222,11111222,11111222' 
TCOON,ioos:station:TCOON:518:1,2014-08-01T05:30:00Z,29.5150,-94.5133,0.0,3.5,209.0,5.3,'11111222,11111222,11111222' 
TCOON,ioos:station:TCOON:518:1,2014-08-01T05:36:00Z,29.5150,-94.5133,0.0,3.3,204.0,5.0,'11111222,11111222,11111222' 
TCOON,ioos:station:TCOON:518:1,2014-08-01T05:42:00Z,29.5150,-94.5133,0.0,3.3,213.0,5.4,'11111222,11111222,11111222' 
TCOON,ioos:station:TCOON:518:1,2014-08-01T05:48:00Z,29.5150,-94.5133,0.0,3.1,205.0,5.3,'11111222,11111222,11111222' 
TCOON,ioos:station:TCOON:518:1,2014-08-01T05:54:00Z,29.5150,-94.5133,0.0,3.7,198.0,6.0,'11111222,11111222,11111222' 
TCOON,ioos:station:TCOON:518:1,2014-08-01T06:00:00Z,29.5150,-94.5133,0.0,3.1,204.0,5.6,'11111222,11111222,11111222' 
TCOON,ioos:station:TCOON:518:1,2014-08-01T06:06:00Z,29.5150,-94.5133,0.0,3.2,210.0,5.2,'11111222,11111222,11111222' 
TCOON,ioos:station:TCOON:518:1,2014-08-01T06:12:00Z,29.5150,-94.5133,0.0,3.6,210.0,5.7,'11111222,11111222,11111222' 
TCOON,ioos:station:TCOON:518:1,2014-08-01T06:18:00Z,29.5150,-94.5133,0.0,3.4,207.0,4.9,'11111222,11111222,11111222' 
TCOON,ioos:station:TCOON:518:1,2014-08-01T06:24:00Z,29.5150,-94.5133,0.0,3.2,206.0,4.9,'11111222,11111222,11111222' 
TCOON,ioos:station:TCOON:518:1,2014-08-01T06:30:00Z,29.5150,-94.5133,0.0,3.5,203.0,4.9,'11111222,11111222,11111222' 
TCOON,ioos:station:TCOON:518:1,2014-08-01T06:36:00Z,29.5150,-94.5133,0.0,3.5,208.0,5.3,'11111222,11111222,11111222' 
TCOON,ioos:station:TCOON:518:1,2014-08-01T06:42:00Z,29.5150,-94.5133,0.0,3.5,208.0,5.3,'1111122,1111122,1111122' 
TCOON,ioos:station:TCOON:518:1,2014-08-01T06:48:00Z,29.5150,-94.5133,0.0,3.5,212.0,5.5,'11111222,11111222,11111222' 
TCOON,ioos:station:TCOON:518:1,2014-08-01T06:54:00Z,29.5150,-94.5133,0.0,2.9,216.0,6.1,'11111222,11111222,11111222' 
TCOON,ioos:station:TCOON:518:1,2014-08-01T07:00:00Z,29.5150,-94.5133,0.0,3.5,212.0,5.3,'11111222,11111222,11111222' 
TCOON,ioos:station:TCOON:518:1,2014-08-01T07:06:00Z,29.5150,-94.5133,0.0,3.3,207.0,5.7,'11111222,11111222,11111222' 
TCOON,ioos:station:TCOON:518:1,2014-08-01T07:12:00Z,29.5150,-94.5133,0.0,3.3,207.0,5.7,'1111122,1111122,1111122' 
TCOON,ioos:station:TCOON:518:1,2014-08-01T07:18:00Z,29.5150,-94.5133,0.0,3.5,234.0,5.1,'11111222,11111222,11111222' 
TCOON,ioos:station:TCOON:518:1,2014-08-01T07:24:00Z,29.5150,-94.5133,0.0,4.0,242.0,5.7,'11111222,11111222,11111222' 
TCOON,ioos:station:TCOON:518:1,2014-08-01T07:30:00Z,29.5150,-94.5133,0.0,4.2,253.0,5.7,'11111222,11111222,11111222' 
TCOON,ioos:station:TCOON:518:1,2014-08-01T07:36:00Z,29.5150,-94.5133,0.0,3.6,240.0,6.0,'11111222,11111222,11111222' 
TCOON,ioos:station:TCOON:518:1,2014-08-01T07:42:00Z,29.5150,-94.5133,0.0,3.9,241.0,5.8,'11111222,11111222,11111222' 
TCOON,ioos:station:TCOON:518:1,2014-08-01T07:48:00Z,29.5150,-94.5133,0.0,3.1,235.0,4.7,'11111222,11111222,11111222' 
TCOON,ioos:station:TCOON:518:1,2014-08-01T07:54:00Z,29.5150,-94.5133,0.0,3.7,238.0,5.9,'11111222,11111222,11111222' 
TCOON,ioos:station:TCOON:518:1,2014-08-01T08:00:00Z,29.5150,-94.5133,0.0,3.0,237.0,5.0,'11111222,11111222,11111222' 
TCOON,ioos:station:TCOON:518:1,2014-08-01T08:06:00Z,29.5150,-94.5133,0.0,2.9,244.0,4.9,'11111222,11111222,11111222' 
TCOON,ioos:station:TCOON:518:1,2014-08-01T08:12:00Z,29.5150,-94.5133,0.0,2.9,244.0,4.9,'1111122,1111122,1111122' 
TCOON,ioos:station:TCOON:518:1,2014-08-01T08:18:00Z,29.5150,-94.5133,0.0,3.0,242.0,4.8,'11111222,11111222,11111222' 
TCOON,ioos:station:TCOON:518:1,2014-08-01T08:24:00Z,29.5150,-94.5133,0.0,2.9,251.0,3.7,'11111222,11111222,11111222' 
TCOON,ioos:station:TCOON:518:1,2014-08-01T08:30:00Z,29.5150,-94.5133,0.0,3.3,251.0,4.9,'11111222,11111222,11111222' 
TCOON,ioos:station:TCOON:518:1,2014-08-01T08:36:00Z,29.5150,-94.5133,0.0,2.7,250.0,3.5,'11111222,11111222,11111222' 
TCOON,ioos:station:TCOON:518:1,2014-08-01T08:42:00Z,29.5150,-94.5133,0.0,2.8,252.0,3.8,'11111222,11111222,11111222' 
TCOON,ioos:station:TCOON:518:1,2014-08-01T08:48:00Z,29.5150,-94.5133,0.0,2.5,249.0,3.4,'11111222,11111222,11111222' 
TCOON,ioos:station:TCOON:518:1,2014-08-01T08:54:00Z,29.5150,-94.5133,0.0,2.6,257.0,3.3,'11111222,11111222,11111222' 
TCOON,ioos:station:TCOON:518:1,2014-08-01T09:00:00Z,29.5150,-94.5133,0.0,2.5,265.0,3.3,'11111222,11111222,11111222' 
TCOON,ioos:station:TCOON:518:1,2014-08-01T09:06:00Z,29.5150,-94.5133,0.0,2.7,264.0,3.9,'11111222,11111222,11111222' 
TCOON,ioos:station:TCOON:518:1,2014-08-01T09:12:00Z,29.5150,-94.5133,0.0,2.7,264.0,3.9,'1111122,1111122,1111122' 
TCOON,ioos:station:TCOON:518:1,2014-08-01T09:18:00Z,29.5150,-94.5133,0.0,2.7,253.0,4.1,'11111222,11111222,11111222' 
TCOON,ioos:station:TCOON:518:1,2014-08-01T09:24:00Z,29.5150,-94.5133,0.0,2.4,254.0,4.2,'11111222,11111222,11111222' 
TCOON,ioos:station:TCOON:518:1,2014-08-01T09:30:00Z,29.5150,-94.5133,0.0,2.3,255.0,3.4,'11111222,11111222,11111222' 
TCOON,ioos:station:TCOON:518:1,2014-08-01T09:36:00Z,29.5150,-94.5133,0.0,2.4,258.0,3.2,'11111222,11111222,11111222' 
TCOON,ioos:station:TCOON:518:1,2014-08-01T09:42:00Z,29.5150,-94.5133,0.0,1.9,256.0,3.1,'11111222,11111222,11111222' 
TCOON,ioos:station:TCOON:518:1,2014-08-01T09:48:00Z,29.5150,-94.5133,0.0,2.2,264.0,3.0,'11111222,11111222,11111222' 
TCOON,ioos:station:TCOON:518:1,2014-08-01T09:54:00Z,29.5150,-94.5133,0.0,2.0,254.0,2.8,'11111222,11111222,11111222' 
TCOON,ioos:station:TCOON:518:1,2014-08-01T10:00:00Z,29.5150,-94.5133,0.0,2.4,252.0,3.1,'11111222,11111222,11111222' 
TCOON,ioos:station:TCOON:518:1,2014-08-01T10:06:00Z,29.5150,-94.5133,0.0,2.3,254.0,3.3,'11111222,11111222,11111222' 
TCOON,ioos:station:TCOON:518:1,2014-08-01T10:12:00Z,29.5150,-94.5133,0.0,2.3,254.0,3.3,'1111122,1111122,1111122' 
TCOON,ioos:station:TCOON:518:1,2014-08-01T10:18:00Z,29.5150,-94.5133,0.0,2.7,255.0,3.7,'11111222,11111222,11111222' 
TCOON,ioos:station:TCOON:518:1,2014-08-01T10:24:00Z,29.5150,-94.5133,0.0,8.4,269.0,11.0,'11111222,11111222,11111222' 
TCOON,ioos:station:TCOON:518:1,2014-08-01T10:30:00Z,29.5150,-94.5133,0.0,7.4,269.0,11.1,'11111222,11111222,11111222' 
TCOON,ioos:station:TCOON:518:1,2014-08-01T10:36:00Z,29.5150,-94.5133,0.0,5.1,256.0,9.2,'11111222,11111222,11111222' 
TCOON,ioos:station:TCOON:518:1,2014-08-01T10:42:00Z,29.5150,-94.5133,0.0,4.1,256.0,5.9,'11111222,11111222,11111222' 
TCOON,ioos:station:TCOON:518:1,2014-08-01T10:48:00Z,29.5150,-94.5133,0.0,4.2,259.0,7.0,'11111222,11111222,11111222' 
TCOON,ioos:station:TCOON:518:1,2014-08-01T10:54:00Z,29.5150,-94.5133,0.0,4.6,236.0,6.9,'11111222,11111222,11111222' 
TCOON,ioos:station:TCOON:518:1,2014-08-01T11:00:00Z,29.5150,-94.5133,0.0,3.0,230.0,5.7,'11111222,11111222,11111222' 
TCOON,ioos:station:TCOON:518:1,2014-08-01T11:06:00Z,29.5150,-94.5133,0.0,2.2,242.0,3.5,'11111222,11111222,11111222' 
TCOON,ioos:station:TCOON:518:1,2014-08-01T11:12:00Z,29.5150,-94.5133,0.0,2.2,242.0,3.5,'1111122,1111122,1111122' 
TCOON,ioos:station:TCOON:518:1,2014-08-01T11:18:00Z,29.5150,-94.5133,0.0,2.8,300.0,3.8,'11111222,11111222,11111222' 
TCOON,ioos:station:TCOON:518:1,2014-08-01T11:24:00Z,29.5150,-94.5133,0.0,2.8,283.0,4.7,'11111222,11111222,11111222' 
TCOON,ioos:station:TCOON:518:1,2014-08-01T11:30:00Z,29.5150,-94.5133,0.0,2.5,277.0,3.4,'11111222,11111222,11111222' 
TCOON,ioos:station:TCOON:518:1,2014-08-01T11:36:00Z,29.5150,-94.5133,0.0,2.7,275.0,4.1,'11111222,11111222,11111222' 
TCOON,ioos:station:TCOON:518:1,2014-08-01T11:42:00Z,29.5150,-94.5133,0.0,2.5,279.0,4.1,'11111222,11111222,11111222' 
TCOON,ioos:station:TCOON:518:1,2014-08-01T11:48:00Z,29.5150,-94.5133,0.0,1.9,268.0,3.0,'11111222,11111222,11111222' 
TCOON,ioos:station:TCOON:518:1,2014-08-01T11:54:00Z,29.5150,-94.5133,0.0,2.3,274.0,3.1,'11111222,11111222,11111222' 
TCOON,ioos:station:TCOON:518:1,2014-08-01T12:00:00Z,29.5150,-94.5133,0.0,2.9,275.0,3.8,'11111222,11111222,11111222' 
TCOON,ioos:station:TCOON:518:1,2014-08-01T12:06:00Z,29.5150,-94.5133,0.0,2.7,265.0,3.9,'11111222,11111222,11111222' 
TCOON,ioos:station:TCOON:518:1,2014-08-01T12:12:00Z,29.5150,-94.5133,0.0,2.7,265.0,3.9,'1111122,1111122,1111122' 
TCOON,ioos:station:TCOON:518:1,2014-08-01T12:18:00Z,29.5150,-94.5133,0.0,2.6,272.0,3.7,'11111222,11111222,11111222' 
TCOON,ioos:station:TCOON:518:1,2014-08-01T12:24:00Z,29.5150,-94.5133,0.0,2.3,276.0,3.5,'11111222,11111222,11111222' 
TCOON,ioos:station:TCOON:518:1,2014-08-01T12:30:00Z,29.5150,-94.5133,0.0,2.0,274.0,2.8,'11111222,11111222,11111222' 
TCOON,ioos:station:TCOON:518:1,2014-08-01T12:36:00Z,29.5150,-94.5133,0.0,1.6,251.0,2.7,'11111222,11111222,11111222' 
TCOON,ioos:station:TCOON:518:1,2014-08-01T12:42:00Z,29.5150,-94.5133,0.0,1.4,225.0,2.1,'11111222,11111222,11111222' 
TCOON,ioos:station:TCOON:518:1,2014-08-01T12:48:00Z,29.5150,-94.5133,0.0,1.5,228.0,2.2,'11111222,11111222,11111222' 
TCOON,ioos:station:TCOON:518:1,2014-08-01T12:54:00Z,29.5150,-94.5133,0.0,1.6,241.0,2.2,'11111222,11111222,11111222' 
TCOON,ioos:station:TCOON:518:1,2014-08-01T13:00:00Z,29.5150,-94.5133,0.0,1.5,234.0,1.9,'11111222,11111222,11111222' 
TCOON,ioos:station:TCOON:518:1,2014-08-01T13:06:00Z,29.5150,-94.5133,0.0,1.2,241.0,1.8,'11111222,11111222,11111222' 
TCOON,ioos:station:TCOON:518:1,2014-08-01T13:12:00Z,29.5150,-94.5133,0.0,1.2,241.0,1.8,'1111122,1111122,1111122' 
TCOON,ioos:station:TCOON:518:1,2014-08-01T13:18:00Z,29.5150,-94.5133,0.0,1.5,248.0,2.3,'11111222,11111222,11111222' 
TCOON,ioos:station:TCOON:518:1,2014-08-01T13:24:00Z,29.5150,-94.5133,0.0,1.4,239.0,1.9,'11111222,11111222,11111222' 
TCOON,ioos:station:TCOON:518:1,2014-08-01T13:30:00Z,29.5150,-94.5133,0.0,2.0,244.0,2.5,'11111222,11111222,11111222' 
TCOON,ioos:station:TCOON:518:1,2014-08-01T13:36:00Z,29.5150,-94.5133,0.0,2.2,269.0,2.8,'11111222,11111222,11111222' 
TCOON,ioos:station:TCOON:518:1,2014-08-01T13:42:00Z,29.5150,-94.5133,0.0,3.2,277.0,4.4,'11111222,11111222,11111222' 
TCOON,ioos:station:TCOON:518:1,2014-08-01T13:48:00Z,29.5150,-94.5133,0.0,4.0,275.0,5.1,'11111222,11111222,11111222' 
TCOON,ioos:station:TCOON:518:1,2014-08-01T13:54:00Z,29.5150,-94.5133,0.0,2.9,272.0,4.4,'11111222,11111222,11111222' 
TCOON,ioos:station:TCOON:518:1,2014-08-01T14:00:00Z,29.5150,-94.5133,0.0,4.1,295.0,5.3,'11111222,11111222,11111222' 
TCOON,ioos:station:TCOON:518:1,2014-08-01T14:06:00Z,29.5150,-94.5133,0.0,4.0,288.0,5.7,'11111222,11111222,11111222' 
TCOON,ioos:station:TCOON:518:1,2014-08-01T14:12:00Z,29.5150,-94.5133,0.0,4.0,288.0,5.7,'1111122,1111122,1111122' 
TCOON,ioos:station:TCOON:518:1,2014-08-01T14:18:00Z,29.5150,-94.5133,0.0,4.0,293.0,5.2,'11111222,11111222,11111222' 
TCOON,ioos:station:TCOON:518:1,2014-08-01T14:24:00Z,29.5150,-94.5133,0.0,4.5,297.0,5.6,'11111222,11111222,11111222' 
TCOON,ioos:station:TCOON:518:1,2014-08-01T14:30:00Z,29.5150,-94.5133,0.0,3.6,299.0,5.1,'11111222,11111222,11111222' 
TCOON,ioos:station:TCOON:518:1,2014-08-01T14:36:00Z,29.5150,-94.5133,0.0,3.9,299.0,4.7,'11111222,11111222,11111222' 
TCOON,ioos:station:TCOON:518:1,2014-08-01T14:42:00Z,29.5150,-94.5133,0.0,3.5,296.0,4.5,'11111222,11111222,11111222' 
TCOON,ioos:station:TCOON:518:1,2014-08-01T14:48:00Z,29.5150,-94.5133,0.0,3.4,292.0,4.9,'11111222,11111222,11111222' 
TCOON,ioos:station:TCOON:518:1,2014-08-01T14:54:00Z,29.5150,-94.5133,0.0,2.9,288.0,4.4,'11111222,11111222,11111222' 
TCOON,ioos:station:TCOON:518:1,2014-08-01T15:00:00Z,29.5150,-94.5133,0.0,3.5,280.0,4.7,'11111222,11111222,11111222' 
TCOON,ioos:station:TCOON:518:1,2014-08-01T15:06:00Z,29.5150,-94.5133,0.0,2.9,273.0,3.8,'11111222,11111222,11111222' 
TCOON,ioos:station:TCOON:518:1,2014-08-01T15:12:00Z,29.5150,-94.5133,0.0,2.9,273.0,3.8,'1111122,1111122,1111122' 
TCOON,ioos:station:TCOON:518:1,2014-08-01T15:18:00Z,29.5150,-94.5133,0.0,3.7,281.0,5.0,'11111222,11111222,11111222' 
TCOON,ioos:station:TCOON:518:1,2014-08-01T15:24:00Z,29.5150,-94.5133,0.0,3.6,307.0,5.8,'11111222,11111222,11111222' 
TCOON,ioos:station:TCOON:518:1,2014-08-01T15:30:00Z,29.5150,-94.5133,0.0,3.7,304.0,4.8,'11111222,11111222,11111222' 
TCOON,ioos:station:TCOON:518:1,2014-08-01T15:36:00Z,29.5150,-94.5133,0.0,3.9,294.0,4.8,'11111222,11111222,11111222' 
TCOON,ioos:station:TCOON:518:1,2014-08-01T15:42:00Z,29.5150,-94.5133,0.0,3.4,301.0,4.5,'11111222,11111222,11111222' 
TCOON,ioos:station:TCOON:518:1,2014-08-01T15:48:00Z,29.5150,-94.5133,0.0,3.7,294.0,4.8,'11111222,11111222,11111222' 
TCOON,ioos:station:TCOON:518:1,2014-08-01T15:54:00Z,29.5150,-94.5133,0.0,3.4,302.0,4.6,'11111222,11111222,11111222' 
TCOON,ioos:station:TCOON:518:1,2014-08-01T16:00:00Z,29.5150,-94.5133,0.0,3.6,312.0,4.4,'11111222,11111222,11111222' 
TCOON,ioos:station:TCOON:518:1,2014-08-01T16:06:00Z,29.5150,-94.5133,0.0,2.9,315.0,4.2,'11111222,11111222,11111222' 
TCOON,ioos:station:TCOON:518:1,2014-08-01T16:12:00Z,29.5150,-94.5133,0.0,2.9,315.0,4.2,'1111122,1111122,1111122' 
TCOON,ioos:station:TCOON:518:1,2014-08-01T16:18:00Z,29.5150,-94.5133,0.0,2.6,299.0,3.3,'11111222,11111222,11111222' 
TCOON,ioos:station:TCOON:518:1,2014-08-01T16:24:00Z,29.5150,-94.5133,0.0,2.4,303.0,3.9,'11111222,11111222,11111222' 
TCOON,ioos:station:TCOON:518:1,2014-08-01T16:30:00Z,29.5150,-94.5133,0.0,2.8,268.0,4.0,'11111222,11111222,11111222' 
TCOON,ioos:station:TCOON:518:1,2014-08-01T16:36:00Z,29.5150,-94.5133,0.0,2.7,277.0,4.4,'11111222,11111222,11111222' 
TCOON,ioos:station:TCOON:518:1,2014-08-01T16:42:00Z,29.5150,-94.5133,0.0,3.7,256.0,5.8,'11111222,11111222,11111222' 
TCOON,ioos:station:TCOON:518:1,2014-08-01T16:48:00Z,29.5150,-94.5133,0.0,2.9,271.0,3.9,'11111222,11111222,11111222' 
TCOON,ioos:station:TCOON:518:1,2014-08-01T16:54:00Z,29.5150,-94.5133,0.0,2.2,286.0,4.1,'11111222,11111222,11111222' 
TCOON,ioos:station:TCOON:518:1,2014-08-01T17:00:00Z,29.5150,-94.5133,0.0,3.3,318.0,4.6,'11111222,11111222,11111222' 
TCOON,ioos:station:TCOON:518:1,2014-08-01T17:06:00Z,29.5150,-94.5133,0.0,3.0,300.0,3.9,'11111222,11111222,11111222' 
TCOON,ioos:station:TCOON:518:1,2014-08-01T17:12:00Z,29.5150,-94.5133,0.0,3.0,300.0,3.9,'1111122,1111122,1111122' 
TCOON,ioos:station:TCOON:518:1,2014-08-01T17:18:00Z,29.5150,-94.5133,0.0,2.8,332.0,3.7,'11111222,11111222,11111222' 
TCOON,ioos:station:TCOON:518:1,2014-08-01T17:24:00Z,29.5150,-94.5133,0.0,2.4,295.0,3.4,'11111222,11111222,11111222' 
TCOON,ioos:station:TCOON:518:1,2014-08-01T17:30:00Z,29.5150,-94.5133,0.0,2.8,282.0,4.0,'11111222,11111222,11111222' 
TCOON,ioos:station:TCOON:518:1,2014-08-01T17:36:00Z,29.5150,-94.5133,0.0,2.9,284.0,4.3,'11111222,11111222,11111222' 
TCOON,ioos:station:TCOON:518:1,2014-08-01T17:42:00Z,29.5150,-94.5133,0.0,2.9,300.0,4.8,'11111222,11111222,11111222' 
TCOON,ioos:station:TCOON:518:1,2014-08-01T17:48:00Z,29.5150,-94.5133,0.0,3.3,286.0,5.7,'11111222,11111222,11111222' 
TCOON,ioos:station:TCOON:518:1,2014-08-01T17:54:00Z,29.5150,-94.5133,0.0,4.1,299.0,5.6,'11111222,11111222,11111222' 
TCOON,ioos:station:TCOON:518:1,2014-08-01T18:00:00Z,29.5150,-94.5133,0.0,3.5,310.0,4.6,'11111222,11111222,11111222' 
TCOON,ioos:station:TCOON:518:1,2014-08-01T18:06:00Z,29.5150,-94.5133,0.0,3.3,299.0,5.3,'11111222,11111222,11111222' 
TCOON,ioos:station:TCOON:518:1,2014-08-01T18:12:00Z,29.5150,-94.5133,0.0,3.3,299.0,5.3,'1111122,1111122,1111122' 
TCOON,ioos:station:TCOON:518:1,2014-08-01T18:18:00Z,29.5150,-94.5133,0.0,3.7,301.0,4.9,'11111222,11111222,11111222' 
TCOON,ioos:station:TCOON:518:1,2014-08-01T18:24:00Z,29.5150,-94.5133,0.0,3.7,280.0,5.2,'11111222,11111222,11111222' 
TCOON,ioos:station:TCOON:518:1,2014-08-01T18:30:00Z,29.5150,-94.5133,0.0,2.8,279.0,4.9,'11111222,11111222,11111222' 
TCOON,ioos:station:TCOON:518:1,2014-08-01T18:36:00Z,29.5150,-94.5133,0.0,3.1,287.0,6.2,'11111222,11111222,11111222' 
TCOON,ioos:station:TCOON:518:1,2014-08-01T18:42:00Z,29.5150,-94.5133,0.0,3.6,288.0,5.8,'11111222,11111222,11111222' 
TCOON,ioos:station:TCOON:518:1,2014-08-01T18:48:00Z,29.5150,-94.5133,0.0,3.5,267.0,5.0,'11111222,11111222,11111222' 
TCOON,ioos:station:TCOON:518:1,2014-08-01T18:54:00Z,29.5150,-94.5133,0.0,4.3,277.0,5.6,'11111222,11111222,11111222' 
TCOON,ioos:station:TCOON:518:1,2014-08-01T19:00:00Z,29.5150,-94.5133,0.0,2.9,291.0,5.5,'11111222,11111222,11111222' 
TCOON,ioos:station:TCOON:518:1,2014-08-01T19:06:00Z,29.5150,-94.5133,0.0,3.2,283.0,5.6,'11111222,11111222,11111222' 
TCOON,ioos:station:TCOON:518:1,2014-08-01T19:12:00Z,29.5150,-94.5133,0.0,3.2,283.0,5.6,'1111122,1111122,1111122' 
TCOON,ioos:station:TCOON:518:1,2014-08-01T19:18:00Z,29.5150,-94.5133,0.0,3.5,278.0,6.4,'11111222,11111222,11111222' 
TCOON,ioos:station:TCOON:518:1,2014-08-01T19:24:00Z,29.5150,-94.5133,0.0,4.1,296.0,5.5,'11111222,11111222,11111222' 
TCOON,ioos:station:TCOON:518:1,2014-08-01T19:30:00Z,29.5150,-94.5133,0.0,3.3,267.0,5.4,'11111222,11111222,11111222' 
TCOON,ioos:station:TCOON:518:1,2014-08-01T19:36:00Z,29.5150,-94.5133,0.0,4.1,278.0,5.6,'11111222,11111222,11111222' 
TCOON,ioos:station:TCOON:518:1,2014-08-01T19:42:00Z,29.5150,-94.5133,0.0,3.9,279.0,5.6,'11111222,11111222,11111222' 
TCOON,ioos:station:TCOON:518:1,2014-08-01T19:48:00Z,29.5150,-94.5133,0.0,3.7,278.0,5.4,'11111222,11111222,11111222' 
TCOON,ioos:station:TCOON:518:1,2014-08-01T19:54:00Z,29.5150,-94.5133,0.0,3.7,257.0,5.4,'11111222,11111222,11111222' 
TCOON,ioos:station:TCOON:518:1,2014-08-01T20:00:00Z,29.5150,-94.5133,0.0,3.6,271.0,5.2,'11111222,11111222,11111222' 
TCOON,ioos:station:TCOON:518:1,2014-08-01T20:06:00Z,29.5150,-94.5133,0.0,3.3,283.0,4.4,'11111222,11111222,11111222' 
TCOON,ioos:station:TCOON:518:1,2014-08-01T20:12:00Z,29.5150,-94.5133,0.0,3.3,283.0,4.4,'1111122,1111122,1111122' 
TCOON,ioos:station:TCOON:518:1,2014-08-01T20:18:00Z,29.5150,-94.5133,0.0,2.2,236.0,4.2,'11111222,11111222,11111222' 